Cosmos 1606 Rocket - Orbit

View from above orbital plane
View from above orbital plane
View from above satellite
View from above satellite

Ground track
Ground track

The orbit data is extracted from the following two-line orbital elements,

1 15370U 84111B   13140.11465509  .00000353  00000-0  40765-4 0  5219
2 15370 082.5155 322.6762 0019793 281.8656 217.7876 14.82738071543446
Epoch (UTC): 20 May 2013 02:45:06
Eccentricity: 0.0019793
inclination: 82.5155°
perigee height: 607 km
apogee height: 634 km
right ascension of ascending node: 322.6762°
argument of perigee: 281.8656°
revolutions per day: 14.82738071
mean anomaly at epoch: 217.7876°
orbit number at epoch: 54344

The dashed part of the orbit path shows where the satellite is in the earth's shadow,  

Developed and maintained by Chris Peat, Heavens-Above GmbH. Please read the updated FAQ before sending e-mail. Imprint. DLR